China Weather Jiexiu today hourly
Home / China / Jiexiu / Jiexiu Hour By Hour Weather - 24hr View

48 Hour View

Time Temp. Wind Dir. Humidity Wind Spd. Precip.
2020-07-21 19:00pm 27°C S 39% 6km/h 0%
2020-07-21 20:00pm 21°C NE 48% 3km/h 0%
2020-07-21 21:00pm 21°C NE 51% 9km/h 0%
2020-07-21 22:00pm 20°C NE 53% 5km/h 0%
2020-07-21 23:00pm 20°C NE 56% 1km/h 0%
2020-07-22 00:00pm 20°C NE 58% 1km/h 1%
2020-07-22 01:00pm 20°C NE 61% 11km/h 10%
2020-07-22 02:00pm 19°C NE 63% 4km/h 10%
2020-07-22 03:00pm 19°C NE 67% 5km/h 14%
2020-07-22 04:00pm 19°C NE 71% 5km/h 55%
2020-07-22 05:00pm 19°C NE 75% 7km/h 55%
2020-07-22 06:00pm 19°C NE 72% 6km/h 55%
2020-07-22 07:00pm 19°C NE 70% 8km/h 11%
2020-07-22 08:00pm 19°C NE 68% 4km/h 7%
2020-07-22 09:00pm 20°C E 60% 6km/h 7%
2020-07-22 10:00pm 20°C E 53% 14km/h 7%
2020-07-22 11:00pm 21°C SE 46% 19km/h 7%
2020-07-22 12:00pm 21°C SE 46% 24km/h 5%
2020-07-22 13:00pm 21°C SE 46% 19km/h 1%
2020-07-22 14:00pm 21°C SE 46% 15km/h 1%
2020-07-22 15:00pm 21°C SE 46% 16km/h 1%
2020-07-22 16:00pm 22°C SE 46% 20km/h 1%
2020-07-22 17:00pm 22°C SE 46% 17km/h 1%
2020-07-22 18:00pm 22°C SE 60% 17km/h 2%

More Local Information

Hourly Weather Nearby

Bookmark and Share

Become A Member